Regional Weather Roundup
Issued by NWS Northern Indiana

Home | Current Version | Previous Version | Graphics & Text | Print | Product List | Glossary On
Versions: 1 2 3 4 5 6 7 8 9 10 11 12 13 14 15 16 17 18 19 20 21 22 23 24 25 26 27 28 29 30 31 32 33 34 35 36 37 38 39 40 41 42 43 44 45 46 47 48 49 50
000
ASUS43 KIWX 170200
RWRIWX

KIWX WEATHER ROUNDUP
NATIONAL WEATHER SERVICE NORTHERN INDIANA
1000 PM EDT TUE SEP 16 2014

NOTE: "FAIR" INDICATES FEW OR NO CLOUDS BELOW 12,000 FEET WITH NO
SIGNIFICANT WEATHER AND/OR OBSTRUCTIONS TO VISIBILITY.

* THESE STATIONS ARE NOT UNDER NWS QUALITY CONTROL. THEY ALSO MAY NOT
  REPORT WEATHER SUCH AS PRECIPITATION OR FOG.

INZ001>027-170300-
NORTHERN INDIANA

CITY           SKY/WX    TMP DP  RH WIND       PRES   REMARKS
GARY*          CLEAR     52  50  93 CALM      30.11R
VALPARAISO     CLEAR     50  47  89 CALM      30.11R
SOUTH BEND     CLEAR     52  45  77 CALM      30.12R
GOSHEN         CLEAR     52  48  86 CALM      30.11R
ANGOLA*        CLEAR     54  46  76 N3        30.11S
FORT WAYNE     CLEAR     51  48  89 CALM      30.11S
PERU/GRISSOM   CLEAR     53  53  99 CALM      30.10S

$$
INZ028>050-170300-
CENTRAL INDIANA

CITY           SKY/WX    TMP DP  RH WIND       PRES   REMARKS
LAFAYETTE      CLEAR     51  49  92 MISG      30.10S
KOKOMO*        CLEAR     52  45  76 CALM      30.11R
MUNCIE*        CLEAR     51  47  86 CALM      30.11S
INDIANAPOLIS   CLEAR     54  49  83 S6        30.11R

$$
MIZ043>046-050>051-056>058-064>065-071>073-077>080-170300-
SOUTHWEST LOWER MICHIGAN

CITY           SKY/WX    TMP DP  RH WIND       PRES   REMARKS
BATTLE CREEK   CLEAR     50  43  77 CALM      30.11S
BENTON HARBOR  CLEAR     46  45  96 CALM      30.11R
COLDWATER*     PTCLDY    52  46  82 CALM      30.11S
HILLSDALE*     PTCLDY    53  48  84 NW3       30.10S
HOLLAND        CLEAR     48  44  86 CALM      30.11S
GRAND RAPIDS   CLEAR     50  43  77 SW6       30.11S
KALAMAZOO      CLEAR     49  43  80 CALM      30.11F
STURGIS*       CLEAR     48  46  93 CALM      30.11R
THREE RIVERS*  FAIR      50  47  88 CALM      30.11S

$$
OHZ001>008-015>018-024>025-170300-
NORTHWEST OHIO

CITY           SKY/WX    TMP DP  RH WIND       PRES   REMARKS
DEFIANCE       CLEAR     50  47  89 CALM      30.10R
FINDLAY        CLEAR     52  47  83 S3        30.09S
TOLEDO EXPRESS CLEAR     51  48  89 CALM      30.08S
TOLEDO METCALF CLEAR     55  45  68 CALM      30.09S
LIMA           CLEAR     53  47  79 SW3       30.11R

$$
&&



USA.gov is the U.S. government's official web portal to all federal, state and local government web resources and services.